M I D A S
Marine Information and Data Acquisition System
Tripno 707 of the Zeeleeuw from 2004-05-04 07:46:19 to 2004-05-04 12:57:40
Back to CruiseResearch ActivitiesStationsMapUnderway DataData graphs

EquipmentUnitsComments
TimeDGPSUTC
LatitudeDGPSDM.mWGS84
LongitudeDGPSDM.mWGS84
SpeedMeteo Stationm/sRelative wind speed
DirectionMeteo StationdegRelative wind direction
TemperatureMeteo Stationdeg CelciusAir temperature
PressureMeteo StationPaAtmospheric pressure
HumidityMeteo Station%Relative humidity
Missing or incorrect values are displayed as -999
Metereological data collected by the RV Zeeleeuw from 2004-05-04 07:46:19 to 2004-05-04 12:57:40
                                                                                    Next 1000 lines
Time Latitude Longitude Speed Direction Temperature Pressure Humidity
2004-05-04 07:46:26 51°18.018 2°41.971 16.6 307 9.4 99110 84
2004-05-04 07:46:32 51°18.02 2°41.932 16.6 308 9.4 99110 84
2004-05-04 07:46:36 51°18.022 2°41.906 15.5 308 9.4 99110 84
2004-05-04 07:46:41 51°18.024 2°41.874 15.6 315 9.5 99100 84
2004-05-04 07:46:46 51°18.026 2°41.841 15.4 312 9.5 99100 84
2004-05-04 07:46:51 51°18.028 2°41.809 14.7 309 9.5 99100 84
2004-05-04 07:46:56 51°18.03 2°41.777 15.3 307 9.5 99100 84
2004-05-04 07:47:00 51°18.031 2°41.751 16.2 306 9.5 99090 84
2004-05-04 07:47:06 51°18.033 2°41.712 14.4 315 9.5 99090 84
2004-05-04 07:47:12 51°18.035 2°41.673 15.9 311 9.4 99100 84
2004-05-04 07:47:17 51°18.037 2°41.64 15.7 310 9.4 99100 84
2004-05-04 07:47:20 51°18.039 2°41.621 16.8 304 9.4 99100 84
2004-05-04 07:47:26 51°18.041 2°41.582 17.2 301 9.4 99100 84
2004-05-04 07:47:32 51°18.043 2°41.543 17.2 300 9.5 99100 84
2004-05-04 07:47:36 51°18.045 2°41.517 16.2 307 9.5 99100 84
2004-05-04 07:47:42 51°18.047 2°41.478 14.9 309 9.5 99100 84
2004-05-04 07:47:47 51°18.049 2°41.445 16.2 306 9.5 99100 84
2004-05-04 07:47:52 51°18.052 2°41.413 16.5 307 9.4 99090 84
2004-05-04 07:47:56 51°18.053 2°41.387 15.1 312 9.4 99090 84
2004-05-04 07:48:01 51°18.055 2°41.354 15.4 310 9.5 99090 84
2004-05-04 07:48:06 51°18.058 2°41.322 14.8 306 9.5 99090 84
2004-05-04 07:48:12 51°18.06 2°41.283 15.3 312 9.5 99100 84
2004-05-04 07:48:16 51°18.061 2°41.257 16 315 9.5 99100 84
2004-05-04 07:48:20 51°18.063 2°41.231 15 310 9.4 99100 84
2004-05-04 07:48:26 51°18.065 2°41.192 16.8 313 9.4 99100 84
2004-05-04 07:48:32 51°18.067 2°41.153 16.4 311 9.5 99080 84
2004-05-04 07:48:36 51°18.069 2°41.127 16.2 309 9.5 99080 84
2004-05-04 07:48:41 51°18.071 2°41.095 16.3 309 9.5 99100 84
2004-05-04 07:48:46 51°18.073 2°41.062 15.9 312 9.5 99100 84
2004-05-04 07:48:52 51°18.076 2°41.024 17.6 314 9.5 99100 84
2004-05-04 07:48:57 51°18.078 2°40.992 17.3 311 9.5 99100 84
2004-05-04 07:49:02 51°18.081 2°40.959 18.4 314 9.4 99090 84
2004-05-04 07:49:06 51°18.082 2°40.934 17.4 306 9.4 99090 84
2004-05-04 07:49:12 51°18.085 2°40.895 15.4 312 9.5 99100 84
2004-05-04 07:49:17 51°18.087 2°40.863 15.8 309 9.5 99100 84
2004-05-04 07:49:22 51°18.089 2°40.83 15.6 311 9.5 99080 84
2004-05-04 07:49:26 51°18.091 2°40.805 15.9 308 9.5 99080 84
2004-05-04 07:49:32 51°18.094 2°40.766 17.5 308 9.5 99080 84
2004-05-04 07:49:36 51°18.097 2°40.74 16.2 308 9.5 99080 84
2004-05-04 07:49:41 51°18.099 2°40.707 16.4 306 9.5 99090 84
2004-05-04 07:49:47 51°18.103 2°40.669 13.3 312 9.5 99090 84
2004-05-04 07:49:52 51°18.105 2°40.637 16.4 306 9.5 99090 84
2004-05-04 07:49:57 51°18.108 2°40.605 16.7 315 9.5 99090 84
2004-05-04 07:50:02 51°18.111 2°40.572 15.7 230 9.5 99090 84
2004-05-04 07:50:06 51°18.113 2°40.547 17.6 227 9.5 99090 84
2004-05-04 07:50:10 51°18.115 2°40.521 16.5 311 9.5 99090 84
2004-05-04 07:50:16 51°18.119 2°40.482 17.2 234 9.5 99090 84
2004-05-04 07:50:21 51°18.122 2°40.45 16.5 314 9.5 99090 84
2004-05-04 07:50:26 51°18.124 2°40.418 16.2 311 9.5 99090 84
2004-05-04 07:50:32 51°18.128 2°40.379 17.7 310 9.5 99080 84
2004-05-04 07:50:37 51°18.13 2°40.347 17.1 310 9.5 99080 84
2004-05-04 07:50:42 51°18.133 2°40.315 16.9 229 9.5 99080 84
2004-05-04 07:50:46 51°18.136 2°40.289 17.3 39 9.5 99080 84
2004-05-04 07:50:52 51°18.139 2°40.25 17.1 314 9.5 99090 84
2004-05-04 07:50:56 51°18.141 2°40.225 16.3 313 9.5 99090 84
2004-05-04 07:51:01 51°18.144 2°40.193 18.7 311 9.5 99080 84
2004-05-04 07:51:06 51°18.147 2°40.161 17.8 303 9.5 99080 84
2004-05-04 07:51:12 51°18.151 2°40.122 18.1 305 9.5 99090 84
2004-05-04 07:51:16 51°18.154 2°40.097 15.7 304 9.5 99090 84
2004-05-04 07:51:22 51°18.157 2°40.059 16.6 305 9.5 99080 84
2004-05-04 07:51:26 51°18.16 2°40.033 15.1 310 9.5 99080 84
2004-05-04 07:51:32 51°18.164 2°39.996 15.6 307 9.5 99070 84
2004-05-04 07:51:37 51°18.166 2°39.964 14.1 306 9.5 99070 84
2004-05-04 07:51:42 51°18.17 2°39.932 16 307 9.5 99080 83
2004-05-04 07:51:47 51°18.173 2°39.9 15.9 311 9.5 99080 83
2004-05-04 07:51:52 51°18.176 2°39.868 16 303 9.5 99080 83
2004-05-04 07:51:56 51°18.179 2°39.842 15.2 307 9.5 99080 83
2004-05-04 07:52:02 51°18.183 2°39.804 15.7 309 9.5 99080 83
2004-05-04 07:52:07 51°18.186 2°39.772 14.5 307 9.5 99080 83
2004-05-04 07:52:12 51°18.189 2°39.74 16 307 9.5 99080 84
2004-05-04 07:52:17 51°18.192 2°39.708 14.1 309 9.5 99080 84
2004-05-04 07:52:22 51°18.195 2°39.676 14.7 312 9.6 99090 83
2004-05-04 07:52:27 51°18.198 2°39.644 14.5 315 9.6 99090 83
2004-05-04 07:52:32 51°18.201 2°39.612 15.3 311 9.6 99080 84
2004-05-04 07:52:37 51°18.204 2°39.581 14.6 313 9.6 99080 84
2004-05-04 07:52:42 51°18.207 2°39.549 13.7 318 9.6 99080 84
2004-05-04 07:52:46 51°18.209 2°39.524 16.5 230 9.6 99080 84
2004-05-04 07:52:52 51°18.212 2°39.486 15.9 315 9.6 99080 84
2004-05-04 07:52:57 51°18.215 2°39.455 14.6 313 9.6 99080 84
2004-05-04 07:53:02 51°18.218 2°39.423 14.7 308 9.6 99090 84
2004-05-04 07:53:07 51°18.221 2°39.391 17 306 9.6 99090 84
2004-05-04 07:53:12 51°18.224 2°39.36 15.8 306 9.6 99080 84
2004-05-04 07:53:16 51°18.226 2°39.334 14.7 311 9.6 99080 84
2004-05-04 07:53:21 51°18.229 2°39.303 15.5 306 9.6 99080 84
2004-05-04 07:53:26 51°18.232 2°39.271 16.5 307 9.6 99080 84
2004-05-04 07:53:32 51°18.235 2°39.233 16.1 309 9.6 99080 83
2004-05-04 07:53:36 51°18.238 2°39.208 16.7 303 9.6 99080 83
2004-05-04 07:53:41 51°18.24 2°39.177 16.4 307 9.6 99080 83
2004-05-04 07:53:47 51°18.244 2°39.139 17.4 307 9.6 99080 83
2004-05-04 07:53:52 51°18.247 2°39.107 15.7 308 9.6 99070 83
2004-05-04 07:53:57 51°18.25 2°39.076 18.9 314 9.6 99070 83
2004-05-04 07:54:01 51°18.252 2°39.05 18 313 9.6 99070 83
2004-05-04 07:54:06 51°18.255 2°39.019 15.9 314 9.6 99070 83
2004-05-04 07:54:12 51°18.258 2°38.981 16.7 310 9.6 99080 83
2004-05-04 07:54:16 51°18.261 2°38.956 18.5 313 9.6 99080 83
2004-05-04 07:54:21 51°18.263 2°38.924 18.8 312 9.6 99070 83
2004-05-04 07:54:26 51°18.266 2°38.893 16.4 309 9.6 99070 83
2004-05-04 07:54:32 51°18.269 2°38.855 16.8 309 9.6 99070 83
2004-05-04 07:54:37 51°18.272 2°38.824 17.2 310 9.6 99070 83
2004-05-04 07:54:42 51°18.275 2°38.792 18.4 309 9.6 99070 83
2004-05-04 07:54:47 51°18.277 2°38.76 15.7 309 9.6 99070 83
2004-05-04 07:54:52 51°18.28 2°38.729 15.8 309 9.6 99070 82
2004-05-04 07:54:57 51°18.283 2°38.697 16.8 310 9.6 99070 82
2004-05-04 07:55:01 51°18.285 2°38.672 15.4 309 9.6 99070 82
2004-05-04 07:55:06 51°18.288 2°38.64 16 311 9.6 99070 82
2004-05-04 07:55:12 51°18.291 2°38.603 15.5 312 9.6 99070 82
2004-05-04 07:55:17 51°18.294 2°38.571 17.5 314 9.6 99070 82
2004-05-04 07:55:22 51°18.297 2°38.54 18.7 310 9.6 99070 82
2004-05-04 07:55:27 51°18.3 2°38.508 16.4 307 9.6 99070 82
2004-05-04 07:55:32 51°18.302 2°38.477 17.3 311 9.7 99080 83
2004-05-04 07:55:36 51°18.305 2°38.452 15.4 310 9.7 99080 83
2004-05-04 07:55:41 51°18.307 2°38.42 15.7 233 9.6 99070 82
2004-05-04 07:55:46 51°18.309 2°38.388 15.3 312 9.6 99070 82
2004-05-04 07:55:52 51°18.312 2°38.35 18.1 311 9.6 99060 82
2004-05-04 07:55:57 51°18.314 2°38.319 16.6 308 9.6 99060 82
2004-05-04 07:56:02 51°18.317 2°38.287 15.8 311 9.6 99070 82
2004-05-04 07:56:07 51°18.319 2°38.255 15.3 314 9.6 99070 82
2004-05-04 07:56:12 51°18.321 2°38.223 16.1 312 9.7 99060 82
2004-05-04 07:56:17 51°18.324 2°38.192 18.8 308 9.7 99060 82
2004-05-04 07:56:22 51°18.326 2°38.16 17.2 306 9.7 99050 82
2004-05-04 07:56:26 51°18.328 2°38.135 18.4 305 9.7 99050 82
2004-05-04 07:56:31 51°18.33 2°38.103 18.2 305 9.7 99050 82
2004-05-04 07:56:36 51°18.333 2°38.071 16.5 307 9.7 99050 82
2004-05-04 07:56:42 51°18.335 2°38.033 15.3 308 9.7 99060 82
2004-05-04 07:56:47 51°18.337 2°38.001 16.6 306 9.7 99060 82
2004-05-04 07:56:52 51°18.339 2°37.968 17.6 310 9.7 99060 82
2004-05-04 07:56:57 51°18.342 2°37.937 16.3 310 9.7 99060 82
2004-05-04 07:57:02 51°18.344 2°37.905 16.3 317 9.7 99050 82
2004-05-04 07:57:06 51°18.347 2°37.88 16.6 307 9.7 99050 82
2004-05-04 07:57:12 51°18.349 2°37.842 19.1 312 9.7 99060 82
2004-05-04 07:57:16 51°18.351 2°37.817 18 311 9.7 99060 82
2004-05-04 07:57:21 51°18.354 2°37.785 17.8 312 9.7 99060 82
2004-05-04 07:57:26 51°18.356 2°37.753 16.9 309 9.7 99060 82
2004-05-04 07:57:32 51°18.358 2°37.715 18.1 42 9.7 99060 82
2004-05-04 07:57:37 51°18.361 2°37.683 19.5 306 9.7 99060 82
2004-05-04 07:57:42 51°18.363 2°37.651 17.7 301 9.7 99040 82
2004-05-04 07:57:47 51°18.366 2°37.619 17.6 314 9.7 99040 82
2004-05-04 07:57:52 51°18.368 2°37.587 18.1 305 9.7 99040 82
2004-05-04 07:57:57 51°18.371 2°37.554 17.8 309 9.7 99040 82
2004-05-04 07:58:02 51°18.373 2°37.523 16.3 310 9.7 99050 82
2004-05-04 07:58:07 51°18.375 2°37.49 14.4 313 9.7 99050 82
2004-05-04 07:58:12 51°18.378 2°37.458 15.9 310 9.7 99100 82
2004-05-04 07:58:17 51°18.38 2°37.427 16.7 306 9.7 99100 82
2004-05-04 07:58:21 51°18.383 2°37.401 15.7 312 9.7 99060 82
2004-05-04 07:58:26 51°18.385 2°37.369 17.1 311 9.7 99060 82
2004-05-04 07:58:32 51°18.388 2°37.331 16.9 312 9.7 99050 82
2004-05-04 07:58:37 51°18.39 2°37.298 17.4 308 9.7 99050 82
2004-05-04 07:58:42 51°18.393 2°37.266 18.1 314 9.7 99050 82
2004-05-04 07:58:47 51°18.395 2°37.234 16.8 305 9.7 99050 82
2004-05-04 07:58:52 51°18.398 2°37.201 17.9 307 9.7 99060 82
2004-05-04 07:58:57 51°18.4 2°37.169 15.8 309 9.7 99060 82
2004-05-04 07:59:02 51°18.403 2°37.136 16.6 309 9.7 99050 82
2004-05-04 07:59:06 51°18.405 2°37.111 17.7 313 9.7 99050 82
2004-05-04 07:59:12 51°18.408 2°37.072 18.3 229 9.7 99050 82
2004-05-04 07:59:17 51°18.41 2°37.039 17.1 232 9.7 99050 82
2004-05-04 07:59:22 51°18.413 2°37.007 17.5 314 9.7 99050 82
2004-05-04 07:59:26 51°18.414 2°36.981 16.7 312 9.7 99050 82
2004-05-04 07:59:30 51°18.417 2°36.955 16.3 314 9.7 99040 82
2004-05-04 07:59:37 51°18.42 2°36.91 16.2 311 9.7 99040 82
2004-05-04 07:59:41 51°18.422 2°36.884 14.6 307 9.7 99050 82
2004-05-04 07:59:46 51°18.425 2°36.852 14.2 308 9.7 99050 82
2004-05-04 07:59:52 51°18.428 2°36.813 16.7 307 9.7 99040 82
2004-05-04 07:59:57 51°18.431 2°36.781 15.5 228 9.7 99040 82
2004-05-04 08:00:02 51°18.433 2°36.748 15.5 310 9.7 99040 82
2004-05-04 08:00:06 51°18.436 2°36.722 16.9 310 9.7 99040 82
2004-05-04 08:00:12 51°18.439 2°36.684 16.9 306 9.7 99050 82
2004-05-04 08:00:17 51°18.442 2°36.651 15 308 9.7 99050 82
2004-05-04 08:00:22 51°18.445 2°36.619 14.9 304 9.8 99050 83
2004-05-04 08:00:27 51°18.447 2°36.586 15.8 316 9.8 99050 83
2004-05-04 08:00:32 51°18.45 2°36.553 18.2 228 9.7 99050 82
2004-05-04 08:00:37 51°18.453 2°36.521 19.2 310 9.7 99050 82
2004-05-04 08:00:42 51°18.456 2°36.488 16.6 310 9.8 99040 83
2004-05-04 08:00:47 51°18.459 2°36.456 16.2 308 9.8 99040 83
2004-05-04 08:00:52 51°18.462 2°36.423 16.9 303 9.8 99050 83
2004-05-04 08:00:56 51°18.464 2°36.397 17.3 309 9.8 99050 83
2004-05-04 08:01:01 51°18.467 2°36.365 18 311 9.7 99040 82
2004-05-04 08:01:07 51°18.471 2°36.326 18.8 309 9.7 99040 82
2004-05-04 08:01:12 51°18.473 2°36.293 19.2 308 9.7 99040 82
2004-05-04 08:01:17 51°18.476 2°36.261 19.9 306 9.7 99040 82
2004-05-04 08:01:22 51°18.476 2°36.228 18.3 308 9.7 99040 82
2004-05-04 08:01:27 51°18.477 2°36.196 16.7 310 9.7 99040 82
2004-05-04 08:01:32 51°18.477 2°36.163 17.1 314 9.7 99040 81
2004-05-04 08:01:37 51°18.476 2°36.13 16.5 44 9.7 99040 81
2004-05-04 08:01:42 51°18.476 2°36.098 18.2 227 9.7 99030 81
2004-05-04 08:01:45 51°18.475 2°36.078 16.9 317 9.7 99030 81
2004-05-04 08:01:51 51°18.474 2°36.039 17.7 41 9.7 99030 81
2004-05-04 08:01:57 51°18.472 2°36 16.9 317 9.7 99030 81
2004-05-04 08:02:02 51°18.471 2°35.968 17.7 317 9.7 99040 81
2004-05-04 08:02:07 51°18.469 2°35.936 18 323 9.7 99040 81
2004-05-04 08:02:12 51°18.467 2°35.903 18.2 320 9.7 99020 81
2004-05-04 08:02:17 51°18.465 2°35.871 18.4 326 9.7 99020 81
2004-05-04 08:02:21 51°18.462 2°35.845 19.3 320 9.7 99030 81
2004-05-04 08:02:26 51°18.458 2°35.813 20.7 321 9.7 99030 81
2004-05-04 08:02:32 51°18.453 2°35.775 18 327 9.7 99030 82
2004-05-04 08:02:36 51°18.45 2°35.749 19.4 322 9.7 99030 82
2004-05-04 08:02:41 51°18.446 2°35.718 19.6 323 9.7 99020 81
2004-05-04 08:02:46 51°18.441 2°35.686 18.3 321 9.7 99020 81
2004-05-04 08:02:52 51°18.435 2°35.647 17.9 322 9.7 99020 81
2004-05-04 08:02:56 51°18.431 2°35.622 16.7 330 9.7 99020 81
2004-05-04 08:03:01 51°18.426 2°35.59 17.4 333 9.7 99020 80
2004-05-04 08:03:07 51°18.421 2°35.551 18.8 327 9.7 99020 80
2004-05-04 08:03:12 51°18.416 2°35.519 19.2 326 9.7 99020 81
2004-05-04 08:03:16 51°18.412 2°35.494 17.8 327 9.7 99020 81
2004-05-04 08:03:22 51°18.407 2°35.455 17.2 325 9.7 99020 81
2004-05-04 08:03:27 51°18.403 2°35.423 18.5 322 9.7 99020 81
2004-05-04 08:03:32 51°18.399 2°35.391 17.6 323 9.7 99020 81
2004-05-04 08:03:37 51°18.394 2°35.359 19.6 330 9.7 99020 81
2004-05-04 08:03:42 51°18.389 2°35.328 19.5 325 9.7 99010 80
2004-05-04 08:03:45 51°18.387 2°35.308 18.7 324 9.7 99010 80
2004-05-04 08:03:52 51°18.381 2°35.264 18.7 328 9.8 99020 80
2004-05-04 08:03:57 51°18.376 2°35.232 18.8 326 9.8 99020 80
2004-05-04 08:04:02 51°18.372 2°35.199 19.4 324 9.8 99020 81
2004-05-04 08:04:06 51°18.368 2°35.174 17.7 324 9.8 99020 81
2004-05-04 08:04:12 51°18.363 2°35.135 18.5 330 9.8 99010 81
2004-05-04 08:04:17 51°18.358 2°35.103 18.6 327 9.8 99010 81
2004-05-04 08:04:22 51°18.354 2°35.071 17.6 325 9.8 99020 81
2004-05-04 08:04:26 51°18.35 2°35.045 16.5 329 9.8 99020 81
2004-05-04 08:04:32 51°18.345 2°35.006 18.3 324 9.8 99010 81
2004-05-04 08:04:37 51°18.34 2°34.974 17.4 329 9.8 99010 81
2004-05-04 08:04:41 51°18.337 2°34.948 20.4 322 9.7 99010 80
2004-05-04 08:04:46 51°18.333 2°34.915 18.4 323 9.7 99010 80
2004-05-04 08:04:52 51°18.328 2°34.877 20.3 319 9.8 99010 80
2004-05-04 08:04:56 51°18.325 2°34.851 20.6 320 9.8 99010 80
2004-05-04 08:05:00 51°18.321 2°34.825 21.9 319 9.8 99010 81
2004-05-04 08:05:07 51°18.315 2°34.779 18.3 319 9.8 99010 81
2004-05-04 08:05:12 51°18.311 2°34.748 17.8 325 9.8 99010 81
2004-05-04 08:05:16 51°18.307 2°34.722 19.8 322 9.8 99010 81
2004-05-04 08:05:21 51°18.303 2°34.689 18.8 319 9.7 99040 80
2004-05-04 08:05:26 51°18.298 2°34.657 19.7 321 9.7 99040 80
2004-05-04 08:05:32 51°18.293 2°34.618 18.7 322 9.8 99000 80
2004-05-04 08:05:37 51°18.289 2°34.586 18.4 323 9.8 99000 80
2004-05-04 08:05:42 51°18.285 2°34.554 19.1 324 9.8 99010 80
2004-05-04 08:05:46 51°18.281 2°34.528 20.5 321 9.8 99010 80
2004-05-04 08:05:52 51°18.276 2°34.49 18.5 322 9.8 99010 80
2004-05-04 08:05:57 51°18.272 2°34.457 18.4 323 9.8 99010 80
2004-05-04 08:06:02 51°18.267 2°34.425 20.3 324 9.8 99010 80
2004-05-04 08:06:07 51°18.263 2°34.393 19 324 9.8 99010 80
2004-05-04 08:06:12 51°18.259 2°34.361 19.2 320 9.8 99000 80
2004-05-04 08:06:17 51°18.255 2°34.328 18.1 321 9.8 99000 80
2004-05-04 08:06:22 51°18.251 2°34.296 18.1 323 9.8 99010 80
2004-05-04 08:06:26 51°18.247 2°34.271 16.9 321 9.8 99010 80
2004-05-04 08:06:32 51°18.242 2°34.232 17.6 326 9.8 99000 80
2004-05-04 08:06:37 51°18.238 2°34.199 17.4 323 9.8 99000 80
2004-05-04 08:06:41 51°18.236 2°34.173 16.7 322 9.8 99000 80
2004-05-04 08:06:47 51°18.234 2°34.134 17.7 316 9.8 99000 80
2004-05-04 08:06:52 51°18.232 2°34.101 18.7 227 9.8 99020 80
2004-05-04 08:06:57 51°18.231 2°34.069 17 317 9.8 99020 80
2004-05-04 08:07:02 51°18.23 2°34.036 17.3 317 9.8 99020 81
2004-05-04 08:07:06 51°18.228 2°34.01 16 321 9.8 99020 81
2004-05-04 08:07:12 51°18.227 2°33.971 20.2 321 9.8 99000 81
2004-05-04 08:07:17 51°18.227 2°33.938 18.8 322 9.8 99000 81
2004-05-04 08:07:20 51°18.226 2°33.918 19 320 9.8 99000 81
2004-05-04 08:07:26 51°18.225 2°33.879 19.3 320 9.8 99000 81
2004-05-04 08:07:32 51°18.223 2°33.84 19.1 321 9.8 99010 81
2004-05-04 08:07:37 51°18.222 2°33.808 17.6 320 9.8 99010 81
2004-05-04 08:07:42 51°18.222 2°33.775 18.5 321 9.8 99010 80
2004-05-04 08:07:46 51°18.221 2°33.749 18 315 9.8 99010 80
2004-05-04 08:07:52 51°18.22 2°33.711 18.9 317 9.8 99010 80
2004-05-04 08:07:57 51°18.219 2°33.678 18.7 318 9.8 99010 80
2004-05-04 08:08:02 51°18.218 2°33.646 17.3 43 9.8 98990 80
2004-05-04 08:08:06 51°18.218 2°33.62 18.1 43 9.8 98990 80
2004-05-04 08:08:12 51°18.216 2°33.581 16.5 315 9.7 99010 80
2004-05-04 08:08:17 51°18.216 2°33.548 18.9 316 9.7 99010 80
2004-05-04 08:08:22 51°18.215 2°33.516 19 319 9.8 99000 80
2004-05-04 08:08:26 51°18.214 2°33.49 19.8 315 9.8 99000 80
2004-05-04 08:08:32 51°18.213 2°33.451 19.9 314 9.8 99000 80
2004-05-04 08:08:37 51°18.212 2°33.418 18.8 320 9.8 99000 80
2004-05-04 08:08:42 51°18.211 2°33.386 20.2 318 9.8 99010 80
2004-05-04 08:08:47 51°18.21 2°33.354 17.9 316 9.8 99010 80
2004-05-04 08:08:52 51°18.209 2°33.321 19.4 318 9.8 99000 80
2004-05-04 08:08:57 51°18.208 2°33.289 16.6 321 9.8 99000 80
2004-05-04 08:09:02 51°18.207 2°33.257 17.7 42 9.8 98990 80
2004-05-04 08:09:06 51°18.207 2°33.231 15.7 314 9.8 98990 80
2004-05-04 08:09:12 51°18.205 2°33.192 17.1 315 9.8 98990 80
2004-05-04 08:09:17 51°18.204 2°33.16 16.9 315 9.8 98990 80
2004-05-04 08:09:22 51°18.203 2°33.128 17.1 317 9.8 99010 80
2004-05-04 08:09:27 51°18.202 2°33.096 18.1 43 9.8 99010 80
2004-05-04 08:09:32 51°18.201 2°33.063 19 312 9.8 99000 80
2004-05-04 08:09:37 51°18.2 2°33.031 16.7 317 9.8 99000 80
2004-05-04 08:09:41 51°18.199 2°33.005 17.7 314 9.8 99000 80
2004-05-04 08:09:46 51°18.198 2°32.973 19.1 321 9.8 99000 80
2004-05-04 08:09:52 51°18.197 2°32.934 19.8 321 9.8 99010 80
2004-05-04 08:09:57 51°18.196 2°32.902 18.5 315 9.8 99010 80
2004-05-04 08:10:02 51°18.195 2°32.87 19 316 9.8 98990 79
2004-05-04 08:10:06 51°18.195 2°32.845 16.9 41 9.8 98990 79
2004-05-04 08:10:12 51°18.194 2°32.806 16.8 323 9.8 99010 80
2004-05-04 08:10:17 51°18.193 2°32.774 17.6 321 9.8 99010 80
2004-05-04 08:10:22 51°18.192 2°32.742 19.5 314 9.8 98990 80
2004-05-04 08:10:26 51°18.191 2°32.717 16.9 321 9.8 98990 80
2004-05-04 08:10:32 51°18.19 2°32.679 16.2 319 9.8 99000 80
2004-05-04 08:10:37 51°18.189 2°32.647 17.4 321 9.8 99000 80
2004-05-04 08:10:41 51°18.188 2°32.621 18.1 320 9.8 99010 80
2004-05-04 08:10:45 51°18.187 2°32.596 19 326 9.8 99010 80
2004-05-04 08:10:52 51°18.186 2°32.551 17.4 320 9.8 98990 80
2004-05-04 08:10:57 51°18.184 2°32.519 18.5 324 9.8 98990 80
2004-05-04 08:11:01 51°18.183 2°32.493 17.7 320 9.8 99000 80
2004-05-04 08:11:05 51°18.182 2°32.468 18 317 9.8 99000 80
2004-05-04 08:11:12 51°18.181 2°32.423 18.6 317 9.8 98990 80
2004-05-04 08:11:17 51°18.18 2°32.392 16.8 316 9.8 98990 80
2004-05-04 08:11:22 51°18.179 2°32.36 18.2 315 9.8 98990 80
2004-05-04 08:11:27 51°18.177 2°32.328 17.3 318 9.8 98990 80
2004-05-04 08:11:31 51°18.176 2°32.302 17.5 322 9.8 98980 79
2004-05-04 08:11:37 51°18.175 2°32.264 17 322 9.8 98980 79
2004-05-04 08:11:41 51°18.173 2°32.239 18.3 319 9.8 98980 79
2004-05-04 08:11:47 51°18.17 2°32.201 18 322 9.8 98980 79
2004-05-04 08:11:52 51°18.166 2°32.17 17.6 325 9.8 98990 79
2004-05-04 08:11:57 51°18.161 2°32.139 17.2 323 9.8 98990 79
2004-05-04 08:12:02 51°18.156 2°32.108 18.9 322 9.8 99000 79
2004-05-04 08:12:06 51°18.151 2°32.084 17.5 332 9.8 99000 79
2004-05-04 08:12:12 51°18.143 2°32.048 19.9 328 9.8 99000 79
2004-05-04 08:12:17 51°18.135 2°32.018 17.6 333 9.8 99000 79
2004-05-04 08:12:22 51°18.127 2°31.988 19.3 331 9.8 98990 80
2004-05-04 08:12:26 51°18.121 2°31.965 18.6 326 9.8 98990 80
2004-05-04 08:12:32 51°18.11 2°31.929 18.5 328 9.8 98990 80
2004-05-04 08:12:37 51°18.101 2°31.9 18.7 335 9.8 98990 80
2004-05-04 08:12:42 51°18.093 2°31.871 17.1 331 9.8 98990 79
2004-05-04 08:12:46 51°18.086 2°31.848 19.6 330 9.8 98990 79
2004-05-04 08:12:52 51°18.075 2°31.812 17.7 332 9.8 99000 79
2004-05-04 08:12:56 51°18.068 2°31.789 18.4 336 9.8 99000 79
2004-05-04 08:13:02 51°18.058 2°31.754 18.2 336 9.8 98990 80
2004-05-04 08:13:07 51°18.049 2°31.724 18 334 9.8 98990 80
2004-05-04 08:13:12 51°18.04 2°31.695 20.1 337 9.8 98990 80
2004-05-04 08:13:17 51°18.031 2°31.665 19.7 335 9.8 98990 80
2004-05-04 08:13:22 51°18.023 2°31.636 19.6 331 9.9 99000 80
2004-05-04 08:13:27 51°18.014 2°31.606 20.5 328 9.9 99000 80
2004-05-04 08:13:32 51°18.006 2°31.577 18.3 332 9.8 98990 80
2004-05-04 08:13:37 51°17.997 2°31.547 19.3 336 9.8 98990 80
2004-05-04 08:13:42 51°17.988 2°31.518 17.6 336 9.8 98990 80
2004-05-04 08:13:47 51°17.979 2°31.488 17.4 333 9.8 98990 80
2004-05-04 08:13:52 51°17.97 2°31.458 19.7 332 9.8 98990 80
2004-05-04 08:13:57 51°17.962 2°31.429 17.8 339 9.8 98990 80
2004-05-04 08:14:02 51°17.954 2°31.399 18.8 332 9.8 98990 80
2004-05-04 08:14:06 51°17.947 2°31.375 17.9 338 9.8 98990 80
2004-05-04 08:14:12 51°17.937 2°31.34 17.8 333 9.9 99000 80
2004-05-04 08:14:17 51°17.929 2°31.31 19.3 337 9.9 99000 80
2004-05-04 08:14:21 51°17.922 2°31.286 19.6 337 9.8 98990 80
2004-05-04 08:14:26 51°17.913 2°31.257 19.5 336 9.8 98990 80
2004-05-04 08:14:32 51°17.904 2°31.221 21.1 333 9.8 99000 80
2004-05-04 08:14:37 51°17.895 2°31.192 21.3 331 9.8 99000 80
2004-05-04 08:14:42 51°17.886 2°31.162 20.4 329 9.8 98980 80
2004-05-04 08:14:46 51°17.88 2°31.138 18.4 334 9.8 98980 80
2004-05-04 08:14:52 51°17.87 2°31.102 18.2 335 9.8 98980 80
2004-05-04 08:14:57 51°17.861 2°31.073 18 332 9.8 98980 80
2004-05-04 08:15:02 51°17.853 2°31.043 19.3 335 9.8 98970 80
2004-05-04 08:15:06 51°17.846 2°31.019 18 335 9.8 98970 80
2004-05-04 08:15:12 51°17.836 2°30.983 19.7 333 9.8 98980 80
2004-05-04 08:15:17 51°17.828 2°30.954 19.2 335 9.8 98980 80
2004-05-04 08:15:22 51°17.819 2°30.923 20.1 334 9.8 98990 80
2004-05-04 08:15:26 51°17.812 2°30.9 20 340 9.8 98990 80
2004-05-04 08:15:32 51°17.802 2°30.864 19.4 335 9.8 98990 80
2004-05-04 08:15:37 51°17.794 2°30.834 19.1 337 9.8 98990 80
2004-05-04 08:15:42 51°17.785 2°30.804 19.2 336 9.8 98980 80
2004-05-04 08:15:47 51°17.776 2°30.774 20.4 334 9.8 98980 80
2004-05-04 08:15:52 51°17.768 2°30.744 19.3 332 9.8 98980 80
2004-05-04 08:15:56 51°17.761 2°30.72 19.2 334 9.8 98980 80
2004-05-04 08:16:01 51°17.752 2°30.69 18.7 340 9.8 98990 80
2004-05-04 08:16:07 51°17.742 2°30.654 19.1 334 9.8 98990 80
2004-05-04 08:16:12 51°17.734 2°30.624 18 332 9.8 98980 81
2004-05-04 08:16:16 51°17.727 2°30.6 17.5 337 9.8 98980 81
2004-05-04 08:16:21 51°17.718 2°30.57 22.1 335 9.8 98980 81
2004-05-04 08:16:26 51°17.71 2°30.54 20.4 337 9.8 98980 81
2004-05-04 08:16:32 51°17.7 2°30.505 18 336 9.8 98980 80
2004-05-04 08:16:37 51°17.691 2°30.474 18 332 9.8 98980 80
2004-05-04 08:16:42 51°17.683 2°30.445 19.9 330 9.8 98980 81
2004-05-04 08:16:45 51°17.678 2°30.426 20.9 330 9.8 98980 81
2004-05-04 08:16:52 51°17.667 2°30.384 20 331 9.8 98980 80
2004-05-04 08:16:57 51°17.658 2°30.354 16.8 335 9.8 98980 80
2004-05-04 08:17:02 51°17.65 2°30.325 18.6 332 9.8 98990 80
2004-05-04 08:17:06 51°17.643 2°30.3 19.2 330 9.8 98990 80
2004-05-04 08:17:12 51°17.633 2°30.264 20.2 334 9.8 98970 80
2004-05-04 08:17:17 51°17.625 2°30.234 18.3 336 9.8 98970 80
2004-05-04 08:17:22 51°17.616 2°30.204 21 330 9.8 98980 81
2004-05-04 08:17:27 51°17.607 2°30.174 19.6 333 9.8 98980 81
2004-05-04 08:17:32 51°17.599 2°30.144 20.1 333 9.8 98980 81
2004-05-04 08:17:37 51°17.59 2°30.114 22.2 335 9.8 98980 81
2004-05-04 08:17:42 51°17.582 2°30.083 20.4 335 9.7 98980 81
2004-05-04 08:17:47 51°17.573 2°30.053 20.3 331 9.7 98980 81
2004-05-04 08:17:52 51°17.565 2°30.023 17.9 328 9.7 98970 80
2004-05-04 08:17:56 51°17.558 2°29.999 18.7 336 9.7 98970 80
2004-05-04 08:18:01 51°17.55 2°29.969 21.6 334 9.7 98980 80
2004-05-04 08:18:06 51°17.542 2°29.939 19.5 331 9.7 98980 80
2004-05-04 08:18:12 51°17.532 2°29.903 19.7 333 9.7 98970 80
2004-05-04 08:18:17 51°17.523 2°29.873 19.3 332 9.7 98970 80
2004-05-04 08:18:22 51°17.514 2°29.844 19.7 335 9.7 98980 80
2004-05-04 08:18:25 51°17.508 2°29.826 18.7 330 9.7 98980 80
2004-05-04 08:18:32 51°17.496 2°29.785 19.4 336 9.7 98970 80
2004-05-04 08:18:37 51°17.486 2°29.756 18.8 334 9.7 98970 80
2004-05-04 08:18:42 51°17.476 2°29.727 20.3 340 9.7 98970 80
2004-05-04 08:18:46 51°17.469 2°29.703 20.7 339 9.7 98970 80
2004-05-04 08:18:52 51°17.458 2°29.668 20.5 336 9.7 98970 80
2004-05-04 08:18:57 51°17.449 2°29.638 21 332 9.7 98970 80
2004-05-04 08:19:02 51°17.44 2°29.609 20.5 330 9.7 98980 80
2004-05-04 08:19:06 51°17.432 2°29.586 18.7 333 9.7 98980 80
2004-05-04 08:19:12 51°17.419 2°29.551 18.9 333 9.7 98980 80
2004-05-04 08:19:17 51°17.41 2°29.521 18.2 339 9.7 98980 80
2004-05-04 08:19:22 51°17.4 2°29.492 18.7 338 9.7 98970 80
2004-05-04 08:19:26 51°17.392 2°29.469 19 340 9.7 98970 80
2004-05-04 08:19:32 51°17.381 2°29.433 19.4 333 9.7 98970 80
2004-05-04 08:19:37 51°17.371 2°29.404 17.8 337 9.7 98970 80
2004-05-04 08:19:42 51°17.361 2°29.375 17 338 9.7 98980 80
2004-05-04 08:19:46 51°17.353 2°29.352 20.1 338 9.7 98980 80
2004-05-04 08:19:50 51°17.345 2°29.328 19.6 335 9.7 98970 80
2004-05-04 08:19:57 51°17.331 2°29.287 19.8 339 9.7 98970 80
2004-05-04 08:20:02 51°17.322 2°29.258 20 339 9.8 98980 80
2004-05-04 08:20:07 51°17.312 2°29.228 19.1 333 9.8 98980 80
2004-05-04 08:20:12 51°17.302 2°29.199 19.3 335 9.7 98980 81
2004-05-04 08:20:17 51°17.292 2°29.169 20.2 333 9.7 98980 81
2004-05-04 08:20:22 51°17.283 2°29.14 20.4 331 9.7 98960 80
2004-05-04 08:20:26 51°17.275 2°29.116 18.9 333 9.7 98960 80
2004-05-04 08:20:32 51°17.264 2°29.081 18.2 333 9.7 98960 80
2004-05-04 08:20:36 51°17.257 2°29.057 16.4 341 9.7 98960 80
2004-05-04 08:20:42 51°17.245 2°29.021 17.4 339 9.7 98970 80
2004-05-04 08:20:46 51°17.237 2°28.998 20.2 340 9.7 98970 80
2004-05-04 08:20:51 51°17.227 2°28.968 19.3 337 9.7 98960 80
2004-05-04 08:20:57 51°17.215 2°28.933 19.7 333 9.7 98960 80
2004-05-04 08:21:01 51°17.207 2°28.91 18.6 333 9.8 98970 81
2004-05-04 08:21:06 51°17.198 2°28.881 17.9 336 9.8 98970 81
2004-05-04 08:21:12 51°17.186 2°28.845 18.6 334 9.8 98980 81
2004-05-04 08:21:17 51°17.176 2°28.816 19.1 335 9.8 98980 81
2004-05-04 08:21:22 51°17.167 2°28.787 20.1 334 9.7 98970 80
2004-05-04 08:21:26 51°17.16 2°28.765 17 333 9.7 98970 80
2004-05-04 08:21:32 51°17.15 2°28.733 17.3 330 9.7 98970 80
2004-05-04 08:21:37 51°17.142 2°28.708 17.8 332 9.7 98970 80
2004-05-04 08:21:42 51°17.134 2°28.683 16.1 335 9.7 98970 80
2004-05-04 08:21:46 51°17.127 2°28.664 18 333 9.7 98970 80
2004-05-04 08:21:52 51°17.118 2°28.636 17.3 329 9.7 98990 80
2004-05-04 08:21:57 51°17.112 2°28.612 16.5 334 9.7 98990 80
2004-05-04 08:22:01 51°17.106 2°28.594 17.5 334 9.7 98990 80
2004-05-04 08:22:07 51°17.097 2°28.567 17.1 329 9.7 98990 80
2004-05-04 08:22:12 51°17.089 2°28.545 17.6 329 9.8 99000 80
2004-05-04 08:22:17 51°17.082 2°28.522 18.4 330 9.8 99000 80
2004-05-04 08:22:22 51°17.074 2°28.5 17.6 329 9.8 98990 80
2004-05-04 08:22:27 51°17.067 2°28.479 17.3 328 9.8 98990 80
2004-05-04 08:22:32 51°17.06 2°28.457 17.5 329 9.8 99020 80
2004-05-04 08:22:36 51°17.054 2°28.44 14.8 323 9.8 99020 80
2004-05-04 08:22:42 51°17.046 2°28.415 16.5 328 9.7 98980 80
2004-05-04 08:22:47 51°17.04 2°28.396 16.6 328 9.7 98980 80
2004-05-04 08:22:52 51°17.034 2°28.377 14.6 330 9.7 98980 79
2004-05-04 08:22:56 51°17.028 2°28.363 16.2 334 9.7 98980 79
2004-05-04 08:23:02 51°17.021 2°28.343 18.2 335 9.7 98990 80
2004-05-04 08:23:06 51°17.016 2°28.33 17.2 341 9.7 98990 80
2004-05-04 08:23:11 51°17.01 2°28.316 17.2 340 9.8 98990 80
2004-05-04 08:23:17 51°17.002 2°28.298 15.8 336 9.8 98990 80
2004-05-04 08:23:22 51°16.995 2°28.285 15.8 337 9.7 99000 80
2004-05-04 08:23:27 51°16.988 2°28.272 15.3 337 9.7 99000 80
2004-05-04 08:23:30 51°16.984 2°28.264 16.8 342 9.7 98990 79
2004-05-04 08:23:37 51°16.975 2°28.247 15 335 9.7 98990 79
2004-05-04 08:23:41 51°16.97 2°28.237 14.8 341 9.7 98990 79
2004-05-04 08:23:45 51°16.965 2°28.227 15.8 335 9.7 98990 79
2004-05-04 08:23:52 51°16.956 2°28.21 15 341 9.7 99000 79
2004-05-04 08:23:56 51°16.952 2°28.2 13.4 331 9.7 99000 79
2004-05-04 08:24:01 51°16.946 2°28.188 14.7 333 9.8 99000 79
2004-05-04 08:24:06 51°16.94 2°28.176 13.4 330 9.8 99000 79
2004-05-04 08:24:12 51°16.933 2°28.161 13 337 9.8 99000 80
2004-05-04 08:24:17 51°16.928 2°28.149 15.1 331 9.8 99000 80
2004-05-04 08:24:21 51°16.923 2°28.14 15.7 333 9.8 99000 80
2004-05-04 08:24:26 51°16.918 2°28.127 14.9 328 9.8 99000 80
2004-05-04 08:24:32 51°16.912 2°28.112 14.9 327 9.8 99000 80
2004-05-04 08:24:37 51°16.907 2°28.1 15 334 9.8 99000 80
2004-05-04 08:24:42 51°16.902 2°28.088 15.2 330 9.8 98990 80
2004-05-04 08:24:46 51°16.898 2°28.077 12.7 334 9.8 98990 80
2004-05-04 08:24:52 51°16.892 2°28.062 13.6 329 9.8 98990 80
2004-05-04 08:24:57 51°16.887 2°28.05 15.2 335 9.8 98990 80
2004-05-04 08:25:02 51°16.883 2°28.037 13.5 324 9.8 99000 80
2004-05-04 08:25:06 51°16.879 2°28.027 13.8 328 9.8 99000 80
2004-05-04 08:25:12 51°16.873 2°28.011 14.6 326 9.8 98990 80
2004-05-04 08:25:17 51°16.868 2°27.999 14.9 327 9.8 98990 80
2004-05-04 08:25:22 51°16.863 2°27.986 15.4 330 9.8 99000 80
2004-05-04 08:25:27 51°16.859 2°27.974 15 331 9.8 99000 80
2004-05-04 08:25:32 51°16.854 2°27.962 15.9 330 9.8 98990 80
2004-05-04 08:25:36 51°16.849 2°27.952 16.1 326 9.8 98990 80
2004-05-04 08:25:42 51°16.843 2°27.938 16.7 333 9.8 98990 81
2004-05-04 08:25:46 51°16.838 2°27.929 16.3 337 9.8 98990 81
2004-05-04 08:25:52 51°16.832 2°27.916 17.2 334 9.8 98990 80
2004-05-04 08:25:57 51°16.827 2°27.905 15.8 333 9.8 98990 80
2004-05-04 08:26:02 51°16.821 2°27.894 15.1 332 9.8 99000 80
2004-05-04 08:26:07 51°16.816 2°27.883 15.6 331 9.8 99000 80
2004-05-04 08:26:12 51°16.81 2°27.872 15.6 330 9.8 98990 80
2004-05-04 08:26:16 51°16.806 2°27.864 14.5 324 9.8 98990 80
2004-05-04 08:26:22 51°16.8 2°27.85 15.6 327 9.7 98990 80
2004-05-04 08:26:26 51°16.796 2°27.841 16.6 321 9.7 98990 80
2004-05-04 08:26:32 51°16.79 2°27.827 17.4 320 9.7 98980 80
2004-05-04 08:26:37 51°16.785 2°27.815 15.9 321 9.7 98980 80
2004-05-04 08:26:42 51°16.78 2°27.803 15.6 323 9.7 98980 80
2004-05-04 08:26:46 51°16.777 2°27.793 16.4 329 9.7 98980 80
2004-05-04 08:26:52 51°16.771 2°27.779 15.6 330 9.7 98980 79
2004-05-04 08:26:57 51°16.767 2°27.767 15.6 337 9.7 98980 79
2004-05-04 08:27:02 51°16.762 2°27.755 15.4 336 9.7 98960 79
2004-05-04 08:27:07 51°16.757 2°27.744 14.9 337 9.7 98960 79
2004-05-04 08:27:12 51°16.751 2°27.734 16.3 331 9.7 98990 80
2004-05-04 08:27:17 51°16.746 2°27.724 14.2 336 9.7 98990 80
2004-05-04 08:27:21 51°16.741 2°27.717 13 342 9.7 98980 80
2004-05-04 08:27:27 51°16.735 2°27.706 14.7 344 9.7 98980 80
2004-05-04 08:27:32 51°16.729 2°27.697 14.1 347 9.8 98990 80
2004-05-04 08:27:37 51°16.723 2°27.689 15.2 341 9.8 98990 80
2004-05-04 08:27:41 51°16.718 2°27.683 16.3 344 9.7 98990 80
2004-05-04 08:27:46 51°16.712 2°27.675 15.3 342 9.7 98990 80
2004-05-04 08:27:52 51°16.705 2°27.667 13.2 342 9.7 98980 80
2004-05-04 08:27:57 51°16.7 2°27.661 14.6 344 9.7 98980 80
2004-05-04 08:28:01 51°16.696 2°27.656 14.2 344 9.7 98980 80
2004-05-04 08:28:07 51°16.69 2°27.648 13.1 345 9.7 98980 80
2004-05-04 08:28:12 51°16.685 2°27.642 13.2 346 9.7 98980 80
2004-05-04 08:28:17 51°16.68 2°27.635 14.2 338 9.7 98980 80
2004-05-04 08:28:22 51°16.676 2°27.628 13.6 340 9.7 98970 80
2004-05-04 08:28:26 51°16.673 2°27.623 13.2 334 9.7 98970 80
2004-05-04 08:28:32 51°16.668 2°27.614 14.1 331 9.7 98980 80
2004-05-04 08:28:37 51°16.665 2°27.606 12.3 316 9.7 98980 80
2004-05-04 08:28:41 51°16.662 2°27.6 14.3 314 9.7 98980 80
2004-05-04 08:28:47 51°16.659 2°27.59 14.9 302 9.7 98980 80
2004-05-04 08:28:52 51°16.657 2°27.582 13.7 307 9.7 98970 80
2004-05-04 08:28:57 51°16.655 2°27.573 12.9 304 9.7 98970 80
2004-05-04 08:29:02 51°16.654 2°27.564 13.2 303 9.7 98970 80
2004-05-04 08:29:07 51°16.653 2°27.554 11.8 305 9.7 98970 80
2004-05-04 08:29:12 51°16.651 2°27.543 13.1 297 9.7 98970 80
2004-05-04 08:29:17 51°16.65 2°27.532 12.5 300 9.7 98970 80
2004-05-04 08:29:22 51°16.649 2°27.519 11.7 297 9.7 98970 80
2004-05-04 08:29:27 51°16.649 2°27.506 11.7 306 9.7 98970 80
2004-05-04 08:29:31 51°16.648 2°27.495 12.8 303 9.7 98970 80
2004-05-04 08:29:37 51°16.646 2°27.478 13.6 302 9.7 98970 80
2004-05-04 08:29:41 51°16.645 2°27.467 11.5 303 9.7 98970 81
2004-05-04 08:29:47 51°16.644 2°27.449 12.4 299 9.7 98970 81
2004-05-04 08:29:52 51°16.643 2°27.435 13.7 298 9.7 98980 81
2004-05-04 08:29:57 51°16.643 2°27.421 12.7 295 9.7 98980 81
2004-05-04 08:30:02 51°16.643 2°27.408 13 296 9.7 98980 81
2004-05-04 08:30:07 51°16.642 2°27.396 12.4 291 9.7 98980 81
2004-05-04 08:30:10 51°16.643 2°27.389 12.7 291 9.7 98970 81
2004-05-04 08:30:16 51°16.643 2°27.375 11.9 277 9.7 98970 81
2004-05-04 08:30:22 51°16.643 2°27.362 11.7 282 9.7 98970 81
2004-05-04 08:30:27 51°16.643 2°27.352 9.8 280 9.7 98970 81
2004-05-04 08:30:32 51°16.644 2°27.342 10.5 278 9.7 98970 81
2004-05-04 08:30:37 51°16.644 2°27.334 11.2 281 9.7 98970 81
2004-05-04 08:30:42 51°16.644 2°27.326 12.7 280 9.7 98980 81
2004-05-04 08:30:45 51°16.644 2°27.322 10.9 269 9.7 98980 81
2004-05-04 08:30:52 51°16.644 2°27.315 12.5 267 9.8 98990 81
2004-05-04 08:30:57 51°16.644 2°27.311 10.9 260 9.8 98990 81
2004-05-04 08:31:02 51°16.643 2°27.308 9.3 259 9.8 98980 81
2004-05-04 08:31:06 51°16.643 2°27.307 9.1 257 9.8 98980 81
2004-05-04 08:31:12 51°16.642 2°27.306 7.7 257 9.8 98980 81
2004-05-04 08:31:17 51°16.642 2°27.304 9.8 242 9.8 98980 81
2004-05-04 08:31:22 51°16.641 2°27.302 8.1 257 9.8 98990 82
2004-05-04 08:31:26 51°16.641 2°27.301 8.7 250 9.8 98990 82
2004-05-04 08:31:32 51°16.641 2°27.3 7.5 252 9.8 98990 82
2004-05-04 08:31:37 51°16.641 2°27.298 8.8 250 9.8 98990 82
2004-05-04 08:31:42 51°16.641 2°27.296 9 248 9.8 98990 82
2004-05-04 08:31:47 51°16.641 2°27.295 7.8 249 9.8 98990 82
2004-05-04 08:31:52 51°16.641 2°27.293 9.4 246 9.8 98990 81
2004-05-04 08:31:57 51°16.641 2°27.291 8.4 245 9.8 98990 81
2004-05-04 08:32:02 51°16.641 2°27.29 9.9 241 9.8 98990 81
2004-05-04 08:32:07 51°16.641 2°27.288 8.2 248 9.8 98990 81
2004-05-04 08:32:12 51°16.641 2°27.287 9.3 246 9.8 99000 81
2004-05-04 08:32:18 51°16.642 2°27.285 9.6 243 9.8 99000 81
2004-05-04 08:32:22 51°16.642 2°27.284 12.2 242 9.8 99000 82
2004-05-04 08:32:27 51°16.642 2°27.282 12.7 243 9.8 99000 82
2004-05-04 08:32:32 51°16.642 2°27.28 13.1 241 9.8 98990 82
2004-05-04 08:32:37 51°16.643 2°27.279 12.3 242 9.8 98990 82
2004-05-04 08:32:42 51°16.643 2°27.277 11.4 245 9.7 98990 81
2004-05-04 08:32:46 51°16.643 2°27.276 9.3 254 9.7 98990 81
2004-05-04 08:32:52 51°16.643 2°27.273 8.9 246 9.7 98990 81
2004-05-04 08:32:57 51°16.644 2°27.272 8.2 250 9.7 98990 81
2004-05-04 08:33:01 51°16.644 2°27.27 8.8 256 9.7 98990 81
2004-05-04 08:33:05 51°16.644 2°27.269 9.6 245 9.7 98990 81
2004-05-04 08:33:12 51°16.645 2°27.266 11.5 249 9.7 98980 81
2004-05-04 08:33:17 51°16.645 2°27.265 10.4 246 9.7 98980 81
2004-05-04 08:33:22 51°16.645 2°27.263 8.3 251 9.8 98990 81
2004-05-04 08:33:26 51°16.646 2°27.262 8.3 256 9.8 98990 81
2004-05-04 08:33:32 51°16.646 2°27.259 7.8 254 9.7 98980 81
2004-05-04 08:33:37 51°16.646 2°27.258 7.2 255 9.7 98980 81
2004-05-04 08:33:41 51°16.647 2°27.256 7.4 254 9.7 98980 81
2004-05-04 08:33:46 51°16.647 2°27.254 9 261 9.7 98980 81
2004-05-04 08:33:52 51°16.647 2°27.252 7.1 248 9.7 98980 81
2004-05-04 08:33:57 51°16.647 2°27.251 8.9 252 9.7 98980 81
2004-05-04 08:34:02 51°16.648 2°27.249 8.3 259 9.7 98980 81
2004-05-04 08:34:07 51°16.648 2°27.247 8.6 252 9.7 98980 81
2004-05-04 08:34:12 51°16.649 2°27.245 10.5 256 9.8 98990 82
2004-05-04 08:34:17 51°16.649 2°27.243 13.1 248 9.8 98990 82
2004-05-04 08:34:22 51°16.65 2°27.241 10.5 251 9.8 98990 82
2004-05-04 08:34:26 51°16.651 2°27.24 10.4 245 9.8 98990 82
2004-05-04 08:34:32 51°16.652 2°27.237 13.1 241 9.7 98980 81
2004-05-04 08:34:37 51°16.653 2°27.234 12.4 241 9.7 98980 81
2004-05-04 08:34:42 51°16.654 2°27.231 10.2 248 9.7 98980 81
2004-05-04 08:34:46 51°16.655 2°27.229 12.3 241 9.7 98980 81
2004-05-04 08:34:52 51°16.656 2°27.226 13.6 241 9.7 98990 81
2004-05-04 08:34:57 51°16.658 2°27.223 12.6 237 9.7 98990 81
2004-05-04 08:35:01 51°16.658 2°27.22 11.1 242 9.7 98980 80
2004-05-04 08:35:06 51°16.66 2°27.218 10.9 244 9.7 98980 80
2004-05-04 08:35:12 51°16.661 2°27.214 10.5 247 9.7 98970 80
2004-05-04 08:35:16 51°16.662 2°27.212 11.2 243 9.7 98970 80
2004-05-04 08:35:22 51°16.664 2°27.208 11.9 243 9.7 98980 80
2004-05-04 08:35:26 51°16.665 2°27.205 12.4 238 9.7 98980 80
2004-05-04 08:35:32 51°16.667 2°27.201 9.8 241 9.7 98980 80
2004-05-04 08:35:37 51°16.668 2°27.198 8.6 250 9.7 98980 80
2004-05-04 08:35:42 51°16.669 2°27.195 8.2 251 9.6 98990 80
2004-05-04 08:35:46 51°16.67 2°27.192 9.8 251 9.6 98990 80
2004-05-04 08:35:52 51°16.672 2°27.188 9.3 250 9.7 98970 80
2004-05-04 08:35:57 51°16.674 2°27.184 10.5 242 9.7 98970 80
2004-05-04 08:36:01 51°16.676 2°27.181 11.1 242 9.7 98990 81
2004-05-04 08:36:07 51°16.679 2°27.176 11.6 239 9.7 98990 81
2004-05-04 08:36:12 51°16.682 2°27.171 12.1 234 9.7 98970 81
2004-05-04 08:36:17 51°16.686 2°27.167 10.5 230 9.7 98970 81
2004-05-04 08:36:21 51°16.689 2°27.164 11.4 226 9.6 98970 81
2004-05-04 08:36:24 51°16.691 2°27.162 11.8 220 9.6 98970 81
2004-05-04 08:36:31 51°16.698 2°27.158 9.7 210 9.6 98980 81
2004-05-04 08:36:37 51°16.703 2°27.156 10.1 209 9.6 98980 81
2004-05-04 08:36:42 51°16.708 2°27.155 7.1 196 9.6 98970 81
2004-05-04 08:36:47 51°16.713 2°27.156 6.2 178 9.6 98970 81
2004-05-04 08:36:52 51°16.718 2°27.158 8.5 174 9.6 98990 81
2004-05-04 08:36:57 51°16.723 2°27.161 10.4 159 9.6 98990 81
2004-05-04 08:37:02 51°16.727 2°27.164 11 155 9.5 98990 81
2004-05-04 08:37:06 51°16.73 2°27.168 11.8 145 9.5 98990 81
2004-05-04 08:37:12 51°16.734 2°27.174 12.1 143 9.6 98990 81
2004-05-04 08:37:17 51°16.737 2°27.181 11.8 133 9.6 98990 81
2004-05-04 08:37:22 51°16.74 2°27.188 11.8 132 9.6 98990 81
2004-05-04 08:37:27 51°16.742 2°27.196 12.7 125 9.6 98990 81
2004-05-04 08:37:32 51°16.743 2°27.204 11.6 118 9.5 98970 81
2004-05-04 08:37:37 51°16.743 2°27.213 12 106 9.5 98970 81
2004-05-04 08:37:42 51°16.742 2°27.221 12.1 111 9.5 98950 81
2004-05-04 08:37:45 51°16.742 2°27.226 10.2 95 9.5 98950 81
2004-05-04 08:37:52 51°16.739 2°27.238 12 95 9.5 98940 81
2004-05-04 08:37:57 51°16.737 2°27.246 12.6 86 9.5 98940 81
2004-05-04 08:38:02 51°16.733 2°27.253 13.2 82 9.5 98950 82
2004-05-04 08:38:06 51°16.731 2°27.258 13.3 63 9.5 98950 82
2004-05-04 08:38:12 51°16.725 2°27.266 13 54 9.5 98950 82
2004-05-04 08:38:17 51°16.721 2°27.272 13.7 52 9.5 98950 82
2004-05-04 08:38:22 51°16.716 2°27.276 14.5 51 9.6 98960 83
2004-05-04 08:38:26 51°16.711 2°27.28 15.1 45 9.6 98960 83
2004-05-04 08:38:32 51°16.704 2°27.285 14.2 44 9.6 98950 83
2004-05-04 08:38:37 51°16.698 2°27.287 15.2 37 9.6 98950 83
2004-05-04 08:38:42 51°16.692 2°27.29 14.5 34 9.6 98960 83
2004-05-04 08:38:47 51°16.685 2°27.292 15.8 32 9.6 98960 83
2004-05-04 08:38:52 51°16.679 2°27.294 16.2 31 9.5 98940 82
2004-05-04 08:38:57 51°16.672 2°27.296 14.5 32 9.5 98940 82
2004-05-04 08:39:02 51°16.665 2°27.298 13.9 35 9.5 98960 82
2004-05-04 08:39:06 51°16.659 2°27.3 14.2 39 9.5 98960 82
2004-05-04 08:39:12 51°16.651 2°27.305 13.3 41 9.5 98960 82
2004-05-04 08:39:17 51°16.644 2°27.309 12.7 44 9.5 98960 82
2004-05-04 08:39:22 51°16.637 2°27.313 15.4 45 9.5 98950 82
2004-05-04 08:39:26 51°16.631 2°27.317 14.7 43 9.5 98950 82
2004-05-04 08:39:32 51°16.623 2°27.323 14.2 40 9.5 98960 82
2004-05-04 08:39:37 51°16.615 2°27.328 15.8 35 9.5 98960 82
2004-05-04 08:39:42 51°16.608 2°27.333 14.5 36 9.6 98950 82
2004-05-04 08:39:45 51°16.603 2°27.336 13 37 9.6 98950 82
2004-05-04 08:39:52 51°16.593 2°27.343 13.4 34 9.5 98950 82
2004-05-04 08:39:57 51°16.585 2°27.348 16.3 43 9.5 98950 82
2004-05-04 08:40:01 51°16.578 2°27.351 15.3 42 9.5 98950 82
2004-05-04 08:40:06 51°16.57 2°27.355 15.1 35 9.5 98950 82
2004-05-04 08:40:12 51°16.561 2°27.361 16.8 37 9.5 98950 82
2004-05-04 08:40:17 51°16.552 2°27.366 16.4 36 9.5 98950 82
2004-05-04 08:40:22 51°16.542 2°27.37 15.8 35 9.5 98950 82
2004-05-04 08:40:26 51°16.534 2°27.373 17.5 29 9.5 98950 82
2004-05-04 08:40:32 51°16.521 2°27.378 17.7 23 9.5 98940 82
2004-05-04 08:40:37 51°16.509 2°27.381 17.7 34 9.5 98940 82
2004-05-04 08:40:42 51°16.497 2°27.383 17.9 32 9.5 98940 82
2004-05-04 08:40:47 51°16.485 2°27.385 19.1 27 9.5 98940 82
2004-05-04 08:40:52 51°16.472 2°27.386 19.6 24 9.5 98940 82
2004-05-04 08:40:56 51°16.461 2°27.386 20.2 15 9.5 98940 82
2004-05-04 08:41:02 51°16.445 2°27.386 17.5 27 9.5 98950 82
2004-05-04 08:41:05 51°16.437 2°27.386 19.2 21 9.5 98950 82
2004-05-04 08:41:12 51°16.417 2°27.384 17.6 22 9.5 98940 82
2004-05-04 08:41:17 51°16.402 2°27.382 18.8 14 9.5 98940 82
2004-05-04 08:41:22 51°16.387 2°27.379 19.1 21 9.5 98940 82
2004-05-04 08:41:26 51°16.375 2°27.377 20.2 23 9.5 98940 82
2004-05-04 08:41:32 51°16.356 2°27.374 20.7 22 9.5 98950 82
2004-05-04 08:41:36 51°16.342 2°27.372 20.3 18 9.5 98950 82
2004-05-04 08:41:41 51°16.325 2°27.369 21.2 20 9.5 98940 82
2004-05-04 08:41:46 51°16.307 2°27.366 20.7 20 9.5 98940 82
2004-05-04 08:41:50 51°16.292 2°27.363 20.5 21 9.5 98940 82
2004-05-04 08:41:56 51°16.27 2°27.359 20 18 9.5 98940 82
2004-05-04 08:42:02 51°16.247 2°27.354 20.8 19 9.5 98920 82
2004-05-04 08:42:06 51°16.232 2°27.351 23.1 21 9.5 98920 82
2004-05-04 08:42:12 51°16.209 2°27.346 21.2 23 9.5 98930 82
2004-05-04 08:42:17 51°16.19 2°27.341 21.1 17 9.5 98930 82
2004-05-04 08:42:21 51°16.175 2°27.338 19.9 16 9.5 98930 82
2004-05-04 08:42:26 51°16.156 2°27.334 18.8 19 9.5 98930 82
2004-05-04 08:42:32 51°16.133 2°27.328 18.2 20 9.5 98920 82
2004-05-04 08:42:36 51°16.117 2°27.324 21.9 14 9.5 98920 82
2004-05-04 08:42:42 51°16.094 2°27.319 21.2 15 9.5 98920 82
2004-05-04 08:42:46 51°16.078 2°27.315 20.6 14 9.5 98920 82
2004-05-04 08:42:52 51°16.055 2°27.309 19.3 15 9.5 98940 82
2004-05-04 08:42:57 51°16.035 2°27.304 19.8 16 9.5 98940 82
2004-05-04 08:43:02 51°16.016 2°27.298 21.2 11 9.5 98940 82
2004-05-04 08:43:06 51°16.001 2°27.293 24.3 10 9.5 98940 82
2004-05-04 08:43:12 51°15.978 2°27.285 23.5 9 9.5 98940 82
2004-05-04 08:43:17 51°15.959 2°27.278 19.7 13 9.5 98940 82
2004-05-04 08:43:22 51°15.939 2°27.272 20.3 12 9.5 98930 82
2004-05-04 08:43:26 51°15.924 2°27.266 21.7 8 9.5 98930 82
2004-05-04 08:43:32 51°15.901 2°27.258 22 9 9.5 98940 82
2004-05-04 08:43:37 51°15.881 2°27.252 24.1 14 9.5 98940 82
2004-05-04 08:43:40 51°15.87 2°27.247 20.8 10 9.5 98940 82
2004-05-04 08:43:47 51°15.843 2°27.239 25.7 19 9.5 98940 82
2004-05-04 08:43:52 51°15.824 2°27.233 23.9 16 9.5 98950 83
2004-05-04 08:43:57 51°15.804 2°27.226 24 19 9.5 98950 83
2004-05-04 08:44:02 51°15.785 2°27.22 23.6 22 9.5 98940 83
2004-05-04 08:44:06 51°15.77 2°27.216 23.2 23 9.5 98940 83
2004-05-04 08:44:12 51°15.747 2°27.209 23.8 24 9.5 98940 82
2004-05-04 08:44:16 51°15.731 2°27.204 22.4 22 9.5 98940 82
2004-05-04 08:44:22 51°15.708 2°27.196 22.2 23 9.4 98920 82
2004-05-04 08:44:26 51°15.693 2°27.191 23.1 24 9.4 98920 82
2004-05-04 08:44:32 51°15.67 2°27.183 22.8 26 9.4 98920 81
2004-05-04 08:44:37 51°15.651 2°27.177 22.2 26 9.4 98920 81
2004-05-04 08:44:41 51°15.635 2°27.173 22.1 25 9.4 98910 80
2004-05-04 08:44:47 51°15.612 2°27.166 22.1 26 9.4 98910 80
2004-05-04 08:44:52 51°15.593 2°27.16 21.7 24 9.4 98920 81
2004-05-04 08:44:56 51°15.577 2°27.156 22.6 24 9.4 98920 81
2004-05-04 08:45:02 51°15.554 2°27.149 22.2 24 9.4 98910 81
2004-05-04 08:45:06 51°15.539 2°27.144 19.5 17 9.4 98910 81
2004-05-04 08:45:11 51°15.519 2°27.138 18.3 18 9.4 98910 81
2004-05-04 08:45:17 51°15.496 2°27.131 20.3 16 9.4 98910 81
2004-05-04 08:45:22 51°15.477 2°27.125 19.6 18 9.4 98910 81
2004-05-04 08:45:25 51°15.465 2°27.122 21.1 17 9.4 98910 81
2004-05-04 08:45:32 51°15.438 2°27.114 21.3 14 9.4 98930 81
2004-05-04 08:45:37 51°15.419 2°27.109 20 13 9.4 98930 81
2004-05-04 08:45:42 51°15.399 2°27.103 19.3 15 9.4 98930 82
2004-05-04 08:45:46 51°15.384 2°27.099 20.1 17 9.4 98930 82
2004-05-04 08:45:52 51°15.36 2°27.092 21.2 16 9.4 98930 82
2004-05-04 08:45:57 51°15.341 2°27.086 19.9 15 9.4 98930 82
2004-05-04 08:46:02 51°15.321 2°27.081 20.7 17 9.3 98930 82
2004-05-04 08:46:07 51°15.302 2°27.076 19.6 18 9.3 98930 82
2004-05-04 08:46:12 51°15.282 2°27.07 19.4 16 9.3 98940 82
2004-05-04 08:46:17 51°15.263 2°27.065 20.6 14 9.3 98940 82
2004-05-04 08:46:21 51°15.247 2°27.061 20.8 17 9.3 98930 82
2004-05-04 08:46:26 51°15.228 2°27.055 19.5 14 9.3 98930 82
2004-05-04 08:46:32 51°15.205 2°27.049 22.3 16 9.3 98930 82
2004-05-04 08:46:37 51°15.185 2°27.044 21.8 15 9.3 98930 82
2004-05-04 08:46:41 51°15.17 2°27.04 20.6 13 9.3 98930 82
2004-05-04 08:46:47 51°15.146 2°27.032 22.2 13 9.3 98930 82
2004-05-04 08:46:52 51°15.127 2°27.026 20.8 12 9.4 98930 82
2004-05-04 08:46:57 51°15.108 2°27.018 19.5 10 9.4 98930 82
2004-05-04 08:47:02 51°15.088 2°27.011 19.8 12 9.4 98930 82
2004-05-04 08:47:07 51°15.069 2°27.003 20.4 14 9.4 98930 82
2004-05-04 08:47:12 51°15.05 2°26.996 21.8 15 9.4 98930 82
2004-05-04 08:47:17 51°15.03 2°26.989 22.8 4 9.4 98930 82
2004-05-04 08:47:22 51°15.011 2°26.982 21.7 9 9.4 98940 82
2004-05-04 08:47:26 51°14.996 2°26.975 23.2 14 9.4 98940 82
2004-05-04 08:47:30 51°14.98 2°26.969 20.9 11 9.4 98950 82
2004-05-04 08:47:36 51°14.957 2°26.96 21.6 13 9.4 98950 82
2004-05-04 08:47:42 51°14.935 2°26.952 20.3 8 9.4 98940 82
2004-05-04 08:47:45 51°14.923 2°26.948 21.7 10 9.4 98940 82
2004-05-04 08:47:52 51°14.897 2°26.937 21.4 14 9.4 98930 82
2004-05-04 08:47:57 51°14.877 2°26.931 22.6 10 9.4 98930 82
2004-05-04 08:48:02 51°14.858 2°26.923 22.7 11 9.4 98940 82
2004-05-04 08:48:06 51°14.842 2°26.918 22.1 12 9.4 98940 82
2004-05-04 08:48:10 51°14.827 2°26.912 22.4 11 9.5 98940 82
2004-05-04 08:48:16 51°14.804 2°26.903 21.2 9 9.5 98940 82
2004-05-04 08:48:22 51°14.781 2°26.894 22.1 8 9.5 98930 81
2004-05-04 08:48:26 51°14.766 2°26.888 21.5 4 9.5 98930 81
2004-05-04 08:48:32 51°14.743 2°26.879 22.7 6 9.5 98940 81
2004-05-04 08:48:36 51°14.727 2°26.873 20.7 11 9.5 98940 81
2004-05-04 08:48:42 51°14.704 2°26.864 21.9 12 9.5 98940 81
2004-05-04 08:48:46 51°14.688 2°26.858 20.9 13 9.5 98940 81
2004-05-04 08:48:52 51°14.665 2°26.849 19.5 14 9.5 98930 81
2004-05-04 08:48:56 51°14.65 2°26.843 22.2 11 9.5 98930 81
2004-05-04 08:49:02 51°14.627 2°26.835 22 14 9.5 98940 81
2004-05-04 08:49:06 51°14.611 2°26.829 19.3 16 9.5 98940 81
2004-05-04 08:49:12 51°14.588 2°26.819 19.6 14 9.5 98940 80
2004-05-04 08:49:16 51°14.572 2°26.814 18.2 14 9.5 98940 80
2004-05-04 08:49:22 51°14.549 2°26.805 18.4 10 9.5 98940 81
2004-05-04 08:49:26 51°14.534 2°26.799 21.7 10 9.5 98940 81
2004-05-04 08:49:32 51°14.511 2°26.79 20.9 11 9.5 98940 81
2004-05-04 08:49:37 51°14.492 2°26.783 21.4 10 9.5 98940 81
2004-05-04 08:49:42 51°14.472 2°26.777 21.2 7 9.5 98940 81
2004-05-04 08:49:46 51°14.457 2°26.772 21.6 12 9.5 98940 81
2004-05-04 08:49:52 51°14.434 2°26.763 22.8 13 9.5 98950 81
2004-05-04 08:49:57 51°14.415 2°26.756 21.7 14 9.5 98950 81
2004-05-04 08:50:02 51°14.395 2°26.749 21.2 10 9.5 98940 81
2004-05-04 08:50:06 51°14.38 2°26.744 22 15 9.5 98940 81
2004-05-04 08:50:12 51°14.357 2°26.735 20.7 15 9.5 98930 81
2004-05-04 08:50:17 51°14.337 2°26.728 19.7 14 9.5 98930 81
2004-05-04 08:50:22 51°14.318 2°26.721 19.1 12 9.5 98940 81
2004-05-04 08:50:26 51°14.303 2°26.715 18.8 13 9.5 98940 81
2004-05-04 08:50:32 51°14.28 2°26.707 18.4 15 9.5 98930 81
2004-05-04 08:50:37 51°14.26 2°26.7 20.6 14 9.5 98930 81
2004-05-04 08:50:42 51°14.241 2°26.692 17.8 19 9.6 98930 81
2004-05-04 08:50:46 51°14.226 2°26.688 19.5 13 9.6 98930 81
2004-05-04 08:50:52 51°14.203 2°26.678 18.7 14 9.6 98930 82
2004-05-04 08:50:57 51°14.184 2°26.672 20.7 14 9.6 98930 82
2004-05-04 08:51:02 51°14.164 2°26.664 19.3 14 9.6 98940 81
2004-05-04 08:51:06 51°14.149 2°26.658 19.2 11 9.6 98940 81
2004-05-04 08:51:12 51°14.126 2°26.65 18.8 16 9.6 98930 81
2004-05-04 08:51:17 51°14.106 2°26.643 18.9 18 9.6 98930 81
2004-05-04 08:51:22 51°14.087 2°26.637 20.9 17 9.6 98930 81
2004-05-04 08:51:27 51°14.068 2°26.63 19.1 20 9.6 98930 81
2004-05-04 08:51:32 51°14.049 2°26.622 18.5 17 9.6 98940 81
2004-05-04 08:51:37 51°14.029 2°26.615 20.7 20 9.6 98940 81
2004-05-04 08:51:42 51°14.01 2°26.609 20.4 15 9.6 98930 81
2004-05-04 08:51:46 51°13.995 2°26.603 20.9 15 9.6 98930 81
2004-05-04 08:51:52 51°13.971 2°26.595 20.2 18 9.6 98930 81
2004-05-04 08:51:57 51°13.952 2°26.588 20 16 9.6 98930 81
2004-05-04 08:52:02 51°13.933 2°26.58 19.5 15 9.6 98930 81
2004-05-04 08:52:06 51°13.917 2°26.575 21 15 9.6 98930 81
2004-05-04 08:52:12 51°13.894 2°26.566 19.8 16 9.6 98920 81
2004-05-04 08:52:17 51°13.875 2°26.559 20.3 16 9.6 98920 81
2004-05-04 08:52:22 51°13.856 2°26.553 21.4 16 9.6 98930 81
2004-05-04 08:52:26 51°13.84 2°26.547 20 17 9.6 98930 81
2004-05-04 08:52:32 51°13.817 2°26.54 21.1 17 9.6 98940 81
2004-05-04 08:52:37 51°13.798 2°26.533 18.8 23 9.6 98940 81
2004-05-04 08:52:42 51°13.778 2°26.526 20.3 25 9.6 98930 81
2004-05-04 08:52:47 51°13.759 2°26.519 19.3 20 9.6 98930 81
2004-05-04 08:52:52 51°13.74 2°26.511 20.7 17 9.6 98930 80
2004-05-04 08:52:57 51°13.72 2°26.504 22.1 16 9.6 98930 80
2004-05-04 08:53:02 51°13.701 2°26.497 21.8 15 9.7 98940 81
2004-05-04 08:53:06 51°13.686 2°26.492 21.6 18 9.7 98940 81
2004-05-04 08:53:12 51°13.662 2°26.483 22.3 19 9.7 98930 81
2004-05-04 08:53:17 51°13.643 2°26.477 22.5 22 9.7 98930 81
2004-05-04 08:53:21 51°13.628 2°26.471 23.9 22 9.7 98940 80
2004-05-04 08:53:26 51°13.609 2°26.465 20.5 29 9.7 98940 80
2004-05-04 08:53:32 51°13.586 2°26.457 19.9 26 9.7 98930 80
2004-05-04 08:53:37 51°13.567 2°26.45 22.7 28 9.7 98930 80
2004-05-04 08:53:42 51°13.548 2°26.443 23.6 25 9.6 98920 79
2004-05-04 08:53:47 51°13.529 2°26.437 22.6 26 9.6 98920 79
2004-05-04 08:53:52 51°13.51 2°26.43 22.8 28 9.7 98910 79
2004-05-04 08:53:57 51°13.491 2°26.424 22.5 27 9.7 98910 79
2004-05-04 08:54:02 51°13.472 2°26.417 21.9 26 9.7 98910 79
2004-05-04 08:54:07 51°13.453 2°26.411 21.4 23 9.7 98910 79
2004-05-04 08:54:12 51°13.434 2°26.403 19.4 17 9.6 98910 79
2004-05-04 08:54:17 51°13.414 2°26.397 18.6 16 9.6 98910 79
2004-05-04 08:54:22 51°13.395 2°26.39 19.8 18 9.7 98900 78
2004-05-04 08:54:27 51°13.376 2°26.384 22.4 19 9.7 98900 78
2004-05-04 08:54:32 51°13.357 2°26.377 20.7 18 9.7 98910 79
2004-05-04 08:54:37 51°13.338 2°26.37 21.4 19 9.7 98910 79
2004-05-04 08:54:42 51°13.319 2°26.364 20.6 17 9.7 98940 79
2004-05-04 08:54:46 51°13.304 2°26.358 21 16 9.7 98940 79
2004-05-04 08:54:52 51°13.281 2°26.351 22 18 9.7 98940 80
2004-05-04 08:54:57 51°13.262 2°26.344 20.7 16 9.7 98940 80
2004-05-04 08:55:02 51°13.243 2°26.337 20.8 15 9.7 98930 79
2004-05-04 08:55:06 51°13.228 2°26.331 19.6 13 9.7 98930 79
2004-05-04 08:55:12 51°13.205 2°26.323 18.9 12 9.6 98930 79
2004-05-04 08:55:17 51°13.185 2°26.316 18.7 16 9.6 98930 79
2004-05-04 08:55:22 51°13.166 2°26.31 21.3 13 9.6 98920 79
2004-05-04 08:55:27 51°13.147 2°26.303 19.5 14 9.6 98920 79
2004-05-04 08:55:32 51°13.128 2°26.296 20.9 13 9.6 98930 79
2004-05-04 08:55:37 51°13.109 2°26.289 20.9 12 9.6 98930 79
2004-05-04 08:55:41 51°13.093 2°26.285 21.3 10 9.6 98930 79
2004-05-04 08:55:46 51°13.074 2°26.278 18.9 11 9.6 98930 79
2004-05-04 08:55:52 51°13.052 2°26.27 20.8 13 9.6 98930 79
2004-05-04 08:55:57 51°13.033 2°26.263 19.5 15 9.6 98930 79
2004-05-04 08:56:02 51°13.014 2°26.256 20.3 18 9.6 98930 79
2004-05-04 08:56:06 51°12.999 2°26.251 21.3 17 9.6 98930 79
2004-05-04 08:56:12 51°12.975 2°26.243 21 16 9.6 98930 79
2004-05-04 08:56:17 51°12.956 2°26.236 20.2 16 9.6 98930 79
2004-05-04 08:56:22 51°12.937 2°26.23 21.1 17 9.6 98930 79
2004-05-04 08:56:26 51°12.922 2°26.224 19 16 9.6 98930 79
2004-05-04 08:56:32 51°12.899 2°26.217 19.7 15 9.6 98930 79
2004-05-04 08:56:37 51°12.88 2°26.21 19.2 15 9.6 98930 79
2004-05-04 08:56:42 51°12.861 2°26.203 19.1 13 9.6 98930 79
2004-05-04 08:56:47 51°12.842 2°26.196 17.4 13 9.6 98930 79
2004-05-04 08:56:52 51°12.822 2°26.19 18.4 16 9.6 98920 79
2004-05-04 08:56:57 51°12.803 2°26.183 21.1 12 9.6 98920 79
2004-05-04 08:57:02 51°12.784 2°26.177 21.7 9 9.6 98930 79
2004-05-04 08:57:07 51°12.765 2°26.17 20.9 12 9.6 98930 79
2004-05-04 08:57:12 51°12.746 2°26.163 18.8 12 9.6 98930 80
2004-05-04 08:57:16 51°12.731 2°26.158 20.8 12 9.6 98930 80
2004-05-04 08:57:21 51°12.711 2°26.151 20.9 12 9.6 98940 80
2004-05-04 08:57:26 51°12.693 2°26.145 19.8 12 9.6 98940 80
2004-05-04 08:57:32 51°12.67 2°26.136 20.7 7 9.6 98930 80
2004-05-04 08:57:37 51°12.65 2°26.13 19.4 12 9.6 98930 80
2004-05-04 08:57:42 51°12.631 2°26.123 19.8 13 9.6 98940 79
2004-05-04 08:57:47 51°12.612 2°26.117 18.3 15 9.6 98940 79
2004-05-04 08:57:52 51°12.593 2°26.11 19.8 12 9.6 98930 79
2004-05-04 08:57:57 51°12.574 2°26.104 17.6 14 9.6 98930 79
2004-05-04 08:58:02 51°12.555 2°26.097 19.4 15 9.6 98930 79
2004-05-04 08:58:07 51°12.536 2°26.091 18.3 13 9.6 98930 79
2004-05-04 08:58:12 51°12.516 2°26.084 17.3 12 9.6 98940 80
2004-05-04 08:58:16 51°12.501 2°26.079 18.9 14 9.6 98940 80
2004-05-04 08:58:21 51°12.482 2°26.072 17.9 10 9.6 98940 80
2004-05-04 08:58:27 51°12.459 2°26.065 19.7 16 9.6 98940 80
2004-05-04 08:58:32 51°12.439 2°26.058 20 18 9.6 98940 80
2004-05-04 08:58:37 51°12.42 2°26.052 20.3 10 9.6 98940 80
2004-05-04 08:58:42 51°12.401 2°26.045 20.4 13 9.6 98940 80
2004-05-04 08:58:47 51°12.382 2°26.039 19.8 14 9.6 98940 80
2004-05-04 08:58:52 51°12.363 2°26.033 18.5 16 9.6 98930 80
2004-05-04 08:58:56 51°12.348 2°26.027 20.8 6 9.6 98930 80
2004-05-04 08:59:02 51°12.325 2°26.019 21.5 17 9.6 98930 80
2004-05-04 08:59:06 51°12.31 2°26.015 20.3 16 9.6 98930 80
2004-05-04 08:59:12 51°12.288 2°26.008 20.6 17 9.6 98930 80
2004-05-04 08:59:16 51°12.273 2°26.003 17.8 14 9.6 98930 80
2004-05-04 08:59:22 51°12.25 2°25.995 17.6 14 9.6 98930 80
2004-05-04 08:59:26 51°12.235 2°25.991 18.8 10 9.6 98930 80
2004-05-04 08:59:32 51°12.212 2°25.983 18.9 15 9.6 98930 80
2004-05-04 08:59:37 51°12.193 2°25.977 22.3 18 9.6 98930 80
2004-05-04 08:59:42 51°12.174 2°25.972 21.3 15 9.6 98930 79
2004-05-04 08:59:47 51°12.156 2°25.966 20.6 16 9.6 98930 79
2004-05-04 08:59:52 51°12.137 2°25.96 20.6 14 9.6 98930 80
2004-05-04 08:59:56 51°12.122 2°25.956 19 15 9.6 98930 80
2004-05-04 09:00:02 51°12.099 2°25.948 18.5 14 9.6 98930 80
2004-05-04 09:00:05 51°12.088 2°25.944 21.3 17 9.6 98930 80
2004-05-04 09:00:12 51°12.062 2°25.936 22.2 20 9.6 98920 79
2004-05-04 09:00:17 51°12.043 2°25.93 22.5 20 9.6 98920 79
2004-05-04 09:00:22 51°12.024 2°25.924 20.6 21 9.6 98920 79
2004-05-04 09:00:25 51°12.013 2°25.921 21.9 18 9.6 98920 79
2004-05-04 09:00:32 51°11.987 2°25.913 21.4 20 9.6 98920 79
2004-05-04 09:00:36 51°11.972 2°25.908 22.5 20 9.6 98920 79
2004-05-04 09:00:42 51°11.949 2°25.901 22.9 17 9.6 98920 79
2004-05-04 09:00:47 51°11.931 2°25.895 22.6 19 9.6 98920 79
2004-05-04 09:00:52 51°11.912 2°25.89 20.9 19 9.6 98910 79
2004-05-04 09:00:57 51°11.894 2°25.884 21.3 18 9.6 98910 79
2004-05-04 09:01:02 51°11.875 2°25.879 21.6 24 9.6 98910 79
2004-05-04 09:01:06 51°11.86 2°25.874 18.1 19 9.6 98910 79
2004-05-04 09:01:12 51°11.838 2°25.868 20.2 12 9.6 98920 79
2004-05-04 09:01:17 51°11.819 2°25.862 18.2 16 9.6 98920 79
2004-05-04 09:01:22 51°11.8 2°25.857 18.8 12 9.6 98910 79
2004-05-04 09:01:26 51°11.785 2°25.853 21.6 12 9.6 98910 79
2004-05-04 09:01:32 51°11.763 2°25.846 20.9 11 9.6 98910 79
2004-05-04 09:01:37 51°11.744 2°25.84 18.9 7 9.6 98910 79
2004-05-04 09:01:42 51°11.726 2°25.834 22 11 9.6 98920 79
2004-05-04 09:01:47 51°11.707 2°25.828 21.5 11 9.6 98920 79
2004-05-04 09:01:52 51°11.688 2°25.823 23.5 15 9.6 98930 79
2004-05-04 09:01:57 51°11.669 2°25.817 23.1 17 9.6 98930 79
2004-05-04 09:02:02 51°11.65 2°25.811 22 16 9.6 98920 79
2004-05-04 09:02:07 51°11.631 2°25.806 20.4 13 9.6 98920 79
2004-05-04 09:02:12 51°11.613 2°25.8 22.2 8 9.6 98920 78
2004-05-04 09:02:16 51°11.598 2°25.796 19.7 13 9.6 98920 78
2004-05-04 09:02:22 51°11.575 2°25.79 19.8 14 9.6 98910 78
2004-05-04 09:02:27 51°11.556 2°25.785 23.8 11 9.6 98910 78
2004-05-04 09:02:32 51°11.537 2°25.779 22.1 7 9.6 98910 77
2004-05-04 09:02:36 51°11.523 2°25.775 22.3 18 9.6 98910 77
2004-05-04 09:02:42 51°11.5 2°25.769 22.9 18 9.6 98920 78
2004-05-04 09:02:47 51°11.482 2°25.764 21.1 16 9.6 98920 78
2004-05-04 09:02:52 51°11.463 2°25.759 21.6 11 9.6 98920 78
2004-05-04 09:02:56 51°11.448 2°25.755 21.5 13 9.6 98920 78
2004-05-04 09:03:02 51°11.426 2°25.749 20.9 13 9.6 98920 78
2004-05-04 09:03:06 51°11.411 2°25.745 20.8 21 9.6 98920 78
2004-05-04 09:03:12 51°11.389 2°25.739 20.2 16 9.6 98910 76
2004-05-04 09:03:16 51°11.374 2°25.735 21.5 17 9.6 98910 76
2004-05-04 09:03:22 51°11.352 2°25.729 20.8 12 9.5 98950 75
2004-05-04 09:03:26 51°11.337 2°25.726 22.1 14 9.5 98950 75
2004-05-04 09:03:38 51°11.293 2°25.715 22.2 14 9.5 98920 75
2004-05-04 09:03:43 51°11.274 2°25.71 23.1 15 9.6 98920 75
2004-05-04 09:03:48 51°11.255 2°25.71 21.9 22 9.6 98920 75
2004-05-04 09:03:53 51°11.237 2°25.711 21.9 25 9.6 98920 75
2004-05-04 09:03:58 51°11.218 2°25.715 21.2 27 9.6 98920 75
2004-05-04 09:04:02 51°11.204 2°25.718 19 29 9.6 98910 75
2004-05-04 09:04:08 51°11.182 2°25.725 20.2 35 9.6 98910 76
2004-05-04 09:04:13 51°11.164 2°25.733 19.4 31 9.6 98910 76
2004-05-04 09:04:18 51°11.146 2°25.742 18.6 32 9.6 98890 76
2004-05-04 09:04:22 51°11.131 2°25.75 21.5 34 9.6 98890 76
2004-05-04 09:04:28 51°11.11 2°25.764 21.4 37 9.6 98900 76
2004-05-04 09:04:32 51°11.097 2°25.774 21.2 37 9.6 98900 76
2004-05-04 09:04:38 51°11.076 2°25.79 18.7 42 9.6 98890 77
2004-05-04 09:04:42 51°11.063 2°25.802 19 45 9.6 98890 77
2004-05-04 09:04:48 51°11.044 2°25.823 18.1 57 9.6 98890 77
2004-05-04 09:04:53 51°11.028 2°25.841 18.4 51 9.6 98890 76
2004-05-04 09:04:58 51°11.013 2°25.86 18.3 52 9.6 98890 76
2004-05-04 09:05:02 51°11.002 2°25.876 16.5 52 9.6 98890 76
2004-05-04 09:05:08 51°10.986 2°25.903 16.8 57 9.6 98890 76
2004-05-04 09:05:13 51°10.972 2°25.925 17.3 48 9.6 98890 75
2004-05-04 09:05:18 51°10.961 2°25.949 17.7 52 9.6 98890 75
2004-05-04 09:05:20 51°10.956 2°25.959 19.7 50 9.5 98890 74
2004-05-04 09:05:28 51°10.937 2°25.998 17.6 48 9.6 98890 75
2004-05-04 09:05:33 51°10.927 2°26.025 19.5 53 9.6 98890 75
2004-05-04 09:05:38 51°10.915 2°26.05 18.8 55 9.6 98880 74
2004-05-04 09:05:43 51°10.906 2°26.076 15.5 58 9.6 98880 74
2004-05-04 09:05:48 51°10.897 2°26.104 14.1 76 9.6 98880 74
2004-05-04 09:05:53 51°10.89 2°26.132 10.2 75 9.5 98890 73
2004-05-04 09:05:58 51°10.884 2°26.161 12.8 82 9.5 98890 73
2004-05-04 09:06:02 51°10.88 2°26.185 10.8 79 9.5 98880 71
2004-05-04 09:06:08 51°10.876 2°26.222 13.2 89 9.5 98880 72
2004-05-04 09:06:13 51°10.873 2°26.252 11.7 82 9.5 98880 72
2004-05-04 09:06:18 51°10.871 2°26.283 11.2 64 9.4 98890 72
2004-05-04 09:06:22 51°10.869 2°26.308 10.6 76 9.4 98890 72
2004-05-04 09:06:28 51°10.867 2°26.345 15.2 83 9.4 98910 73
2004-05-04 09:06:33 51°10.865 2°26.376 13 91 9.4 98910 73
2004-05-04 09:06:38 51°10.866 2°26.408 12.7 91 9.4 98910 73
2004-05-04 09:06:43 51°10.867 2°26.439 13.8 92 9.5 98910 74
2004-05-04 09:06:48 51°10.869 2°26.47 13.4 95 9.5 98910 74
2004-05-04 09:06:53 51°10.872 2°26.501 11.2 96 9.5 98910 74
2004-05-04 09:06:58 51°10.875 2°26.532 10.3 101 9.5 98910 74
2004-05-04 09:07:02 51°10.878 2°26.556 10.7 101 9.5 98910 74
2004-05-04 09:07:08 51°10.883 2°26.593 10.7 91 9.5 98920 75
2004-05-04 09:07:13 51°10.887 2°26.623 12.3 94 9.5 98920 75
2004-05-04 09:07:18 51°10.891 2°26.654 13 99 9.5 98920 75
2004-05-04 09:07:22 51°10.894 2°26.678 12.6 96 9.5 98920 75
2004-05-04 09:07:28 51°10.898 2°26.713 12.4 97 9.5 98920 75
2004-05-04 09:07:33 51°10.902 2°26.743 11.8 99 9.5 98930 76
2004-05-04 09:07:38 51°10.906 2°26.773 12.4 95 9.5 98930 76
2004-05-04 09:07:42 51°10.909 2°26.797 12 91 9.5 98930 77
2004-05-04 09:07:48 51°10.914 2°26.834 11.8 96 9.5 98920 77
2004-05-04 09:07:53 51°10.917 2°26.864 12.7 89 9.5 98920 77
2004-05-04 09:07:58 51°10.921 2°26.895 13 87 9.5 98920 77
2004-05-04 09:08:02 51°10.924 2°26.919 12.2 94 9.5 98920 77
2004-05-04 09:08:08 51°10.929 2°26.956 10.4 97 9.5 98920 77
2004-05-04 09:08:13 51°10.932 2°26.987 11.5 97 9.5 98920 77
2004-05-04 09:08:18 51°10.936 2°27.018 10.9 98 9.5 98930 77
2004-05-04 09:08:22 51°10.939 2°27.042 9.9 98 9.5 98930 77
2004-05-04 09:08:28 51°10.943 2°27.08 11.7 84 9.4 98920 77
2004-05-04 09:08:32 51°10.946 2°27.104 11.9 94 9.4 98920 77
2004-05-04 09:08:38 51°10.95 2°27.141 11.5 96 9.4 98920 77
2004-05-04 09:08:42 51°10.953 2°27.166 9.5 90 9.4 98920 77
2004-05-04 09:08:48 51°10.957 2°27.202 10.5 88 9.4 98930 77
2004-05-04 09:08:53 51°10.962 2°27.232 12.4 86 9.4 98930 77
2004-05-04 09:08:58 51°10.965 2°27.262 10.8 101 9.4 98930 78
2004-05-04 09:09:02 51°10.969 2°27.286 10 103 9.4 98930 78
2004-05-04 09:09:08 51°10.974 2°27.321 9.8 103 9.4 98920 78
2004-05-04 09:09:13 51°10.978 2°27.35 9.2 106 9.4 98920 78
2004-05-04 09:09:18 51°10.983 2°27.379 10.5 107 9.4 98920 78
2004-05-04 09:09:21 51°10.986 2°27.396 13.1 104 9.4 98920 78
2004-05-04 09:09:28 51°10.992 2°27.437 11.8 105 9.4 98920 78
2004-05-04 09:09:33 51°10.997 2°27.466 10.3 101 9.4 98920 78
2004-05-04 09:09:36 51°11 2°27.484 13.4 107 9.4 98930 78
2004-05-04 09:09:41 51°11.004 2°27.513 13.4 106 9.4 98930 78